This is the latest recevied weather packets stored in our database for station/object SP2WM. If no packets are shown the sender has not sent any weather packets the latest 10 day(s).
| Time | Temp. | Humidity | Pressure | Rain* | Wind** | Luminosity | Snow |
|---|---|---|---|---|---|---|---|
| 1777863622 | 12.78° C | 64% | 1009.3 hPa | 0 mm | - | - | - |
| 1777863023 | 12.78° C | 63% | 1009.3 hPa | 0 mm | - | - | - |
| 1777862424 | 12.78° C | 63% | 1009.2 hPa | 0 mm | - | - | - |
| 1777861822 | 13.33° C | 62% | 1009.3 hPa | 0 mm | - | - | - |
| 1777861227 | 13.89° C | 61% | 1009.2 hPa | 0 mm | - | - | - |
| 1777860626 | 13.89° C | 61% | 1009.4 hPa | 0 mm | - | - | - |
| 1777860026 | 13.89° C | 60% | 1009.5 hPa | 0 mm | - | - | - |
| 1777859427 | 13.89° C | 60% | 1009.6 hPa | 0 mm | - | - | - |
| 1777858824 | 14.44° C | 58% | 1009.4 hPa | 0 mm | - | - | - |
| 1777858226 | 15° C | 57% | 1009.5 hPa | 0 mm | - | - | - |
| 1777857627 | 15.56° C | 55% | 1009.5 hPa | 0 mm | - | - | - |
| 1777857025 | 15.56° C | 55% | 1009.4 hPa | 0 mm | - | - | - |
| 1777855832 | 15.56° C | 54% | 1009.4 hPa | 0 mm | - | - | - |
| 1777855228 | 15.56° C | 55% | 1009.4 hPa | 0 mm | - | - | - |
| 1777854630 | 15.56° C | 55% | 1009.4 hPa | 0 mm | - | - | - |
| 1777854032 | 15.56° C | 55% | 1009.5 hPa | 0 mm | - | - | - |
| 1777853434 | 15.56° C | 56% | 1009.6 hPa | 0 mm | - | - | - |
| 1777852835 | 15° C | 56% | 1009.5 hPa | 0 mm | - | - | - |
| 1777852236 | 15.56° C | 56% | 1009.6 hPa | 0 mm | - | - | - |
| 1777851636 | 16.11° C | 54% | 1009.6 hPa | 0 mm | - | - | - |
| 1777851020 | 15.56° C | 54% | 1009.7 hPa | 0 mm | - | - | - |
| 1777850423 | 16.11° C | 53% | 1009.6 hPa | 0 mm | - | - | - |
| 1777849822 | 16.67° C | 52% | 1009.7 hPa | 0 mm | - | - | - |
| 1777849222 | 16.67° C | 52% | 1009.7 hPa | 0 mm | - | - | - |
| 1777848622 | 16.67° C | 52% | 1009.7 hPa | 0 mm | - | - | - |
* Rain latest hour (hover to see other rain measurements)
** Current wind speed in m/s (hover to see current wind gust speed)